PDT,Max TemperatureF,Mean TemperatureF,Min TemperatureF,Max Dew PointF,MeanDew PointF,Min DewpointF,Max Humidity, Mean Humidity, Min Humidity, Max Sea Level PressureIn, Mean Sea Level PressureIn, Min Sea Level PressureIn, Max VisibilityMiles, Mean VisibilityMiles, Min VisibilityMiles, Max Wind SpeedMPH, Mean Wind SpeedMPH, Max Gust SpeedMPH,PrecipitationIn, CloudCover, Events, WindDirDegrees
2012-9-1,70,58,45,50,47,43,93,67,31,30.13,30.09,29.99,10,10,10,13,4,22,0.00,2,,241
2012-9-2,70,59,48,52,48,45,88,69,37,30.20,30.17,30.13,15,12,10,10,3,,0.00,4,Rain,226
2012-9-3,71,58,45,55,50,45,100,76,47,30.20,30.17,30.12,15,15,15,9,2,,0.00,2,Fog,222
2012-9-4,74,61,48,57,53,48,100,76,39,30.23,30.18,30.12,15,15,15,9,2,,0.00,0,,216
2012-9-5,75,62,50,59,55,50,94,80,53,30.12,30.04,29.96,15,15,15,9,2,,0.00,3,Fog,215
2012-9-6,84,70,55,55,49,44,94,46,22,30.06,30.03,29.98,15,15,15,14,8,22,0.00,1,,40
2012-9-7,86,68,51,55,51,46,88,56,23,30.17,30.11,30.05,15,15,15,6,2,,0.00,0,,337
2012-9-8,87,70,52,59,54,51,88,61,31,30.06,29.96,29.87,20,14,10,12,3,,0.00,3,,311
2012-9-9,66,62,57,55,54,52,94,77,60,30.01,29.96,29.90,20,13,10,15,9,20,0.16,7,Rain,204
2012-9-10,64,55,46,55,48,43,94,75,45,30.20,30.07,29.90,20,14,10,18,11,20,0.12,5,Rain,202
2012-9-11,64,54,45,48,44,39,93,72,36,30.35,30.30,30.22,20,16,15,9,4,,0.00,3,,221
2012-9-12,73,58,42,48,44,40,93,65,28,30.40,30.34,30.27,15,15,15,7,2,,0.00,1,,349
2012-9-13,80,62,44,57,48,43,88,63,26,30.27,30.17,30.06,15,15,15,7,3,,0.00,1,,17
2012-9-14,77,62,46,55,50,46,94,71,33,30.12,30.07,30.02,15,15,15,12,3,,0.00,2,Fog,241
2012-9-15,75,61,47,57,51,46,94,73,32,30.19,30.14,30.06,15,15,15,10,4,,0.00,2,Fog,219
2012-9-16,79,62,46,59,52,46,100,73,33,30.24,30.18,30.13,20,14,10,10,2,,0.00,1,Fog,244
2012-9-17,82,64,46,57,51,45,100,66,31,30.16,30.09,30.01,10,10,10,10,3,,0.00,1,,245
2012-9-18,80,64,48,55,51,48,100,67,32,30.07,30.04,30.02,15,12,10,8,2,,0.00,0,,240
2012-9-19,77,62,46,58,53,46,100,74,43,30.17,30.12,30.07,15,13,10,9,2,,0.00,0,Fog,220
2012-9-20,80,62,44,61,52,45,100,82,46,30.12,30.08,29.99,15,6,0,10,3,17,0.00,1,Fog,225
2012-9-21,60,55,50,54,53,50,100,88,74,30.16,30.13,30.09,15,8,1,8,3,,0.00,6,Rain,237
2012-9-22,61,58,55,55,53,50,94,83,59,30.17,30.15,30.14,20,12,4,7,2,,0.00,8,,206
2012-9-23,68,60,51,54,51,49,94,78,53,30.17,30.14,30.11,20,16,10,8,3,,0.00,5,,217
2012-9-24,68,56,43,54,49,45,100,82,55,30.15,30.13,30.10,20,10,0,10,2,,0.00,5,Fog,219
2012-9-25,68,59,50,54,52,48,100,85,58,30.15,30.13,30.09,20,10,0,12,3,17,0.00,5,Fog,215
2012-9-26,68,54,41,54,48,41,100,86,55,30.14,30.11,30.06,20,10,0,9,2,,0.00,4,Fog,215
2012-9-27,74,60,45,57,50,45,100,85,46,30.10,30.05,29.95,20,6,0,8,2,,0.00,1,Fog,33
2012-9-28,71,62,53,59,54,52,94,76,51,30.01,29.97,29.95,20,14,10,14,2,,0.00,7,Fog-Rain,223
2012-9-29,65,56,48,59,50,45,100,78,51,30.31,30.19,30.02,20,12,3,10,5,,0.00,6,,214
2012-9-30,67,53,39,50,45,40,100,76,41,30.43,30.38,30.32,15,15,15,10,2,,0.00,2,,261